Bakersfield, CA

7:10 PM PST on February 19, 2017 (GMT -0800)
Meadows

Weather History for KBFL - May, 2014

Change the Weather History Date:

Friday, May 16, 2014

  Actual Average Record
Temperature  
Mean Temperature 83 °F 71 °F  
Max Temperature 97 °F 84 °F 105 °F (1970)
Min Temperature 68 °F 58 °F 39 °F (1918)
Degree Days  
Heating Degree Days 0    
Month to date heating degree days 6  
Since 1 July heating degree days 1508  
Cooling Degree Days 18    
Month to date cooling degree days 128  
Year to date cooling degree days 291  
Growing Degree Days 34 (Base 50)    
Moisture  
Dew Point 36 °F    
Average Humidity 24    
Maximum Humidity 38    
Minimum Humidity 10    
Precipitation  
Precipitation 0.00 in 0.01 in 0.17 in (1944)
Month to date precipitation 0.04 0.12  
Year to date precipitation 1.34 4.25  
Since 1 July precipitation 2.41  
Snow  
Snow 0.00 in - - ()
Month to date snowfall 0.0  
Since 1 July snowfall 0.0  
Snow Depth 0.00 in    
Sea Level Pressure  
Sea Level Pressure 29.95 in    
Wind  
Wind Speed 7 mph (NW)    
Max Wind Speed 15 mph    
Max Gust Speed 21 mph    
Visibility 10 miles    
Events      
T = Trace of Precipitation, MM = Missing Value Source: NWS Daily Summary

Daily Weather History Graph

Daily Weather History Graph

Search for Another Location

Airport or City:

Trip Planner

Search our weather history database for the weather conditions in past years. The results will help you decide how hot, cold, wet, or windy it might be!

Date:

Astronomy

May. 16, 2014 Rise Set
Actual Time 5:50 AM PDT 7:54 PM PDT
Civil Twilight 5:22 AM PDT 8:23 PM PDT
Nautical Twilight 4:48 AM PDT 8:57 PM PDT
Astronomical Twilight 4:10 AM PDT 9:35 PM PDT
Moon 10:06 PM PDT (5/16) 7:37 AM PDT (5/16)
Length of Visible Light 15h 00m
Length of Day
14h 03m
Waning Gibbous, 95% of the Moon is Illuminated
May 16
Waning Gibbous
May 21
Last Quarter
May 28
New
Jun 5
First Quarter
Jun 12
Full

Hourly Weather History & Observations

Time (PDT) Temp. Dew Point Humidity Pressure Visibility Wind Dir Wind Speed Gust Speed Precip Events Conditions
12:54 AM 73.9 °F 45.0 °F 35% 30.01 in 10.0 mi NW 4.6 mph - N/A   Clear
1:54 AM 73.0 °F 42.1 °F 33% 30.01 in 10.0 mi Variable 3.5 mph - N/A   Clear
2:54 AM 72.0 °F 41.0 °F 33% 30.01 in 10.0 mi WNW 3.5 mph - N/A   Clear
3:54 AM 71.1 °F 44.1 °F 38% 30.01 in 10.0 mi ESE 5.8 mph - N/A   Clear
4:54 AM 71.1 °F 44.1 °F 38% 30.01 in 10.0 mi ESE 4.6 mph - N/A   Clear
5:54 AM 70.0 °F 41.0 °F 35% 30.01 in 10.0 mi ESE 4.6 mph - N/A   Clear
6:54 AM 71.1 °F 39.0 °F 31% 30.02 in 10.0 mi ESE 5.8 mph - N/A   Clear
7:54 AM 75.0 °F 36.0 °F 24% 30.02 in 10.0 mi SE 5.8 mph - N/A   Clear
8:54 AM 80.1 °F 30.0 °F 16% 30.02 in 10.0 mi SE 3.5 mph - N/A   Clear
9:54 AM 82.9 °F 28.9 °F 14% 30.01 in 10.0 mi Calm Calm - N/A   Clear
10:54 AM 86.0 °F 28.9 °F 13% 30.00 in 10.0 mi WSW 4.6 mph - N/A   Clear
11:54 AM 90.0 °F 26.1 °F 10% 29.99 in 10.0 mi NW 8.1 mph - N/A   Clear
12:54 PM 91.0 °F 30.0 °F 11% 29.97 in 10.0 mi WNW 10.4 mph - N/A   Clear
1:54 PM 91.9 °F 28.9 °F 11% 29.95 in 10.0 mi WNW 12.7 mph - N/A   Clear
2:54 PM 93.9 °F 32.0 °F 11% 29.93 in 10.0 mi NW 10.4 mph - N/A   Clear
3:54 PM 95.0 °F 33.1 °F 11% 29.90 in 10.0 mi WNW 8.1 mph - N/A   Clear
4:54 PM 96.1 °F 32.0 °F 10% 29.87 in 10.0 mi NNW 12.7 mph - N/A   Clear
5:54 PM 96.1 °F 33.1 °F 11% 29.86 in 10.0 mi NW 11.5 mph - N/A   Clear
6:54 PM 93.9 °F 34.0 °F 12% 29.85 in 10.0 mi NNW 10.4 mph - N/A   Clear
7:54 PM 90.0 °F 37.9 °F 16% 29.85 in 10.0 mi NNW 8.1 mph - N/A   Clear
8:54 PM 84.9 °F 41.0 °F 21% 29.86 in 10.0 mi NW 5.8 mph - N/A   Clear
9:54 PM 80.1 °F 42.1 °F 26% 29.88 in 10.0 mi NNW 6.9 mph - N/A   Clear
10:54 PM 79.0 °F 37.9 °F 23% 29.89 in 10.0 mi NNW 10.4 mph - N/A   Clear
11:54 PM 73.0 °F 39.9 °F 30% 29.91 in 10.0 mi NW 8.1 mph - N/A   Clear